sat.trackr.live / text

‹ back to catalog

STARLINK-34753

NORAD 64946 · 2025-158Q

PAYLOAD ACTIVE UNKNOWN

§ Identity

Operator
Country
US
Launch date
2025-07-27
Launch site
AFWTR
Launch vehicle
Mass (kg)
RCS (m²)

Purposes: comms

External: N2YO · Heavens-Above · Gunter

§ Orbital elements

Epoch: 2026-09-20T13:55:51.746592Z

Period
93.91 min
Inclination
97.2844°
Eccentricity
0.0001738
Mean motion
15.33454071 rev/d
Perigee alt
464.3 km
Apogee alt
466.7 km
Semi-major
6,843.7 km
B*
4.2107e-4
RAAN
121.8112°
Arg perigee
83.6311°
Mean anomaly
276.5130°
Rev number
6,471

§ Raw data

STARLINK-347531 64946U 25158Q   26263.58046003  .00013547  00000+0  42107-3 0  99912 64946  97.2844 121.8112 0001738  83.6311 276.5130 15.33454071 64717

JSON: /api/v1/satellites/64946 · /tle

For live sub-satellite position, see the globe view (requires WebGL).

§ Visibility from observer

Set your observer location to see the next 7 days of passes ≥ 10°. The values pass through the URL so the page stays shareable.

No JS? Fill the form by hand. The geolocation button needs JavaScript.